TimeMDT,TemperatureF,Dew PointF,Humidity,Sea Level PressureIn,VisibilityMPH,Wind Direction,Wind SpeedMPH,Gust SpeedMPH,PrecipitationIn,Events,Conditions,WindDirDegrees,DateUTC
12:52 AM,33.1,30.0,89,29.93,10.0,SSW,4.6,-,N/A,,Overcast,210,2013-04-03 06:52:00
1:52 AM,30.9,28.9,92,29.93,10.0,SSW,5.8,-,N/A,,Overcast,200,2013-04-03 07:52:00
2:52 AM,30.9,28.0,89,29.93,6.0,SSW,3.5,-,0.00,Snow,Light Snow,200,2013-04-03 08:52:00
3:47 AM,30.2,26.6,86,30.06,10.0,Calm,Calm,-,0.00,,Overcast,0,2013-04-03 09:47:00
3:52 AM,30.0,27.0,88,29.94,10.0,SSW,3.5,-,0.00,,Overcast,210,2013-04-03 09:52:00
4:52 AM,32.0,27.0,82,29.97,10.0,SW,3.5,-,N/A,,Overcast,220,2013-04-03 10:52:00
5:17 AM,32.0,26.6,80,30.07,10.0,Calm,Calm,-,N/A,,Overcast,0,2013-04-03 11:17:00
5:48 AM,32.0,26.6,80,30.08,4.0,SW,3.5,-,0.00,Snow,Light Snow,220,2013-04-03 11:48:00
5:52 AM,32.0,27.0,82,30.02,3.0,SSW,3.5,-,0.00,Snow,Light Snow,200,2013-04-03 11:52:00
6:11 AM,30.2,28.4,93,30.09,2.0,SW,3.5,-,0.00,Snow,Light Snow,220,2013-04-03 12:11:00
6:17 AM,30.2,28.4,93,30.09,3.0,SW,3.5,-,0.00,Snow,Light Snow,220,2013-04-03 12:17:00
6:52 AM,30.0,28.9,96,30.04,3.0,SSW,3.5,-,0.00,Snow,Light Snow,200,2013-04-03 12:52:00
7:01 AM,30.2,28.4,93,30.10,2.0,South,3.5,-,0.01,Snow,Light Snow,190,2013-04-03 13:01:00
7:08 AM,30.2,28.4,93,30.11,4.0,South,3.5,-,0.01,,Overcast,170,2013-04-03 13:08:00
7:52 AM,30.9,28.9,92,30.09,10.0,SE,3.5,-,0.01,,Overcast,140,2013-04-03 13:52:00
8:14 AM,30.2,30.2,100,30.13,10.0,Calm,Calm,-,N/A,,Overcast,0,2013-04-03 14:14:00
8:52 AM,34.0,30.9,89,30.10,10.0,SSE,4.6,-,N/A,,Mostly Cloudy,160,2013-04-03 14:52:00
9:00 AM,33.8,30.2,87,30.13,10.0,Variable,3.5,-,N/A,,Scattered Clouds,0,2013-04-03 15:00:00
9:10 AM,35.6,30.2,81,30.14,10.0,Calm,Calm,-,N/A,,Scattered Clouds,0,2013-04-03 15:10:00
9:18 AM,35.6,30.2,81,30.14,10.0,SW,4.6,-,N/A,,Mostly Cloudy,220,2013-04-03 15:18:00
9:50 AM,37.4,30.2,75,30.15,10.0,Calm,Calm,-,N/A,,Mostly Cloudy,0,2013-04-03 15:50:00
9:52 AM,39.0,30.0,70,30.10,10.0,Variable,3.5,-,N/A,,Mostly Cloudy,0,2013-04-03 15:52:00
10:11 AM,39.2,28.4,65,30.14,10.0,Calm,Calm,-,N/A,,Scattered Clouds,0,2013-04-03 16:11:00
10:52 AM,46.0,27.0,47,30.06,10.0,NNE,10.4,-,N/A,,Scattered Clouds,30,2013-04-03 16:52:00
11:52 AM,46.0,21.9,39,30.05,10.0,NNW,8.1,-,N/A,,Mostly Cloudy,340,2013-04-03 17:52:00
12:52 PM,50.0,21.0,32,30.02,10.0,Variable,5.8,-,N/A,,Mostly Cloudy,0,2013-04-03 18:52:00
1:52 PM,52.0,19.9,28,30.00,10.0,Variable,5.8,-,N/A,,Mostly Cloudy,0,2013-04-03 19:52:00
2:52 PM,53.1,17.1,24,29.99,10.0,North,10.4,16.1,N/A,,Mostly Cloudy,350,2013-04-03 20:52:00
3:52 PM,57.9,15.1,19,29.96,10.0,NNW,10.4,23.0,N/A,,Overcast,340,2013-04-03 21:52:00
4:52 PM,57.0,12.9,18,29.94,10.0,NNE,11.5,18.4,N/A,,Overcast,30,2013-04-03 22:52:00
5:52 PM,52.0,15.1,23,29.98,10.0,NNW,12.7,28.8,N/A,,Clear,330,2013-04-03 23:52:00
6:52 PM,53.1,17.1,24,30.01,10.0,NNE,21.9,29.9,N/A,,Mostly Cloudy,30,2013-04-04 00:52:00
7:52 PM,50.0,14.0,24,30.04,10.0,NW,19.6,26.5,N/A,,Mostly Cloudy,310,2013-04-04 01:52:00
7:59 PM,50.0,14.0,24,30.12,10.0,NW,6.9,26.5,N/A,,Mostly Cloudy,310,2013-04-04 01:59:00
8:52 PM,43.0,15.1,32,30.09,10.0,NNE,6.9,-,N/A,,Mostly Cloudy,30,2013-04-04 02:52:00
9:52 PM,37.0,14.0,39,30.13,10.0,SE,3.5,-,N/A,,Clear,140,2013-04-04 03:52:00
10:52 PM,36.0,16.0,44,30.13,10.0,Calm,Calm,-,N/A,,Clear,0,2013-04-04 04:52:00
11:52 PM,30.9,14.0,50,30.16,10.0,Calm,Calm,-,N/A,,Clear,0,2013-04-04 05:52:00